Regional Weather Roundup
Issued by NWS Wakefield, VA

Home | Current Version | Previous Version | Text Only | Print | Product List | Glossary On
Versions: 1 2 3 4 5 6 7 8 9 10 11 12 13 14 15 16 17 18 19 20 21 22 23 24 25 26 27 28 29 30 31 32 33 34 35 36 37 38 39 40 41 42 43 44 45 46 47 48 49 50
000
ASUS41 KAKQ 201310
RWRAKQ

REGIONAL WEATHER ROUNDUP
NATIONAL WEATHER SERVICE WAKEFIELD VA
900 AM EDT MON OCT 20 2014

Note: "fair" indicates few or no clouds below 12,000 feet with no
significant weather and/or obstructions to visibility. * = Denotes
station may not report precipitation (e.g., rain,snow,etc.),
thunder or fog.

VAZ042-051-052>054-056-201400-
NORTHERN VIRGINIA

CITY           SKY/WX    TMP DP  RH WIND       PRES   REMARKS
WASH NATIONAL  CLOUDY    51  43  74 S8        30.15R
DULLES         PTSUNNY   45  39  79 S3        30.13R
FORT BELVOIR   SUNNY     43  42  95 CALM      30.15R
QUANTICO       MOSUNNY   51  41  68 SW9       30.15R
FREDERICKSBRG* SUNNY     42  42  99 CALM      30.13S
STAFFORD*      SUNNY     42  42 100 CALM      30.17S
WARRENTON      SUNNY     44  44  99 CALM      30.11S
CULPEPER*      SUNNY     41  39  93 CALM      30.13S
MANASSAS*      MOSUNNY   43  43 100 CALM      30.13S
LEESBURG*      PTSUNNY   43  41  93 CALM      30.13R
WINCHESTER     PTSUNNY   45  34  65 CALM      30.09S
FRONT ROYAL*   SUNNY     39  36  87 CALM      30.09R
LURAY*         SUNNY     43  41  93 CALM      30.09S
$$

VAZ048-049-060>072-079>083-201400-
CENTRAL AND SOUTH CENTRAL VIRGINIA...AND NORTH CENTRAL NORTH CAROLINA

CITY           SKY/WX    TMP DP  RH WIND       PRES   REMARKS
RICHMOND       PTSUNNY   49  42  77 S5        30.16R
CHESTERFIELD*  MOSUNNY  N/A N/A N/A SE3       30.16R
PETERSBURG*    MOSUNNY   45  43  93 CALM      30.16R
HANOVER        MOSUNNY   47  41  80 S3        30.16R
TAPPAHANNOCK*  MOSUNNY   47  41  77 S5        30.16R
CHARLOTTSVILLE SUNNY     43  38  82 CALM      30.11S
ORANGE*        SUNNY     45  41  87 S3        30.13S
LOUISA*        SUNNY     43  39  87 S3        30.12R
FARMVILLE*     MOSUNNY   39  39 100 CALM      30.13R
CREWE*         MOSUNNY   46  42  88 CALM      30.14R
FORT PICKETT*  MOSUNNY   46  44  93 S7        30.15R
LUNENBURG*     MOSUNNY   47  44  90 S3        30.14R
SOUTH HILL*    MOSUNNY   48  48 100 S3        30.21R
LAWRENCEVILLE* MOSUNNY   46  44  92 S3        30.16R
ROANOKE RAPIDS MOSUNNY   46  43  87 SW6       30.18R
RALEIGH        MOSUNNY   51  43  74 S5        30.17R
$$

VAZ088>098-201400-
SOUTHEAST VIRGINIA

CITY           SKY/WX    TMP DP  RH WIND       PRES   REMARKS
NORFOLK        PTSUNNY   50  43  77 SW6       30.18R
VIRGINIA BEACH PTSUNNY   50  43  77 SW3       30.18R
NORFOLK NAVAL  PTSUNNY   56  41  57 S5        30.19R
WEST POINT*    MOSUNNY   49  47  95 CALM      30.19R
NEWPORT NEWS   MOSUNNY   54  48  80 SW3       30.17R
LANGLEY AFB    MOSUNNY   53  48  84 S7        30.18R
FORT EUSTIS    MOSUNNY   55  45  69 VRB6      30.16R
WILLIAMSBURG*  MOSUNNY   52  46  82 SW5       30.18R
HR EXEC AP*    PTSUNNY   43  41  93 CALM      30.21R
FRANKLIN*      MOSUNNY   46  45  93 CALM      30.19R
WAKEFIELD      MOSUNNY   47  41  80 S3        30.18R
$$

VAZ020-022-025-037-045-201400-
WEST CENTRAL AND SOUTHWEST VIRGINIA

CITY           SKY/WX    TMP DP  RH WIND       PRES   REMARKS
STAUNTON*      SUNNY     37  35  90 CALM      30.12R
HOT SPRINGS VA SUNNY     47  33  59 W15       30.06R
LYNCHBURG      MOSUNNY   40  40 100 CALM      30.14R
DANVILLE       PTSUNNY   43  41  93 CALM      30.15R
SOUTH BOSTON*  NOT AVBL
MARTINSVILLE   PTSUNNY   40  40 100 CALM      30.15S
ROANOKE        PTSUNNY   44  38  79 CALM      30.14R
BLACKSBURG     MOSUNNY   41  41 100 CALM      30.13R
DUBLIN*        PTSUNNY   40  40 100 CALM      30.12S
MARION*        MOSUNNY   39  37  92 CALM      30.14R
HILLSVILLE*    PTSUNNY   47  40  78 S7        30.11R
RICHLANDS*     SUNNY     45  39  79 CALM      30.11R
WISE*          SUNNY     46  37  71 CALM      30.11R
ABINGDON*      MOSUNNY   45  41  86 CALM      30.11R
$$

MDZ021>025-VAZ099-100-201400-
SOUTHERN MARYLAND AND THE DELMARVA PENINSULA

CITY           SKY/WX    TMP DP  RH WIND       PRES   REMARKS
PATUXENT RIVER PTSUNNY   55  42  61 S6        30.14R
BAY BRIDGE APT   N/A     54  37  54 SE8       30.14R
LEONARDTOWN    SUNNY     48  41  76 CALM      30.15S
DOVER          SUNNY     47  43  85 S6        30.12R
GEORGETOWN     SUNNY     45  39  79 CALM      30.16R
EASTON         SUNNY     50  48  93 CALM      30.18R
CAMBRIDGE      SUNNY     50  43  76 SE5       30.15R
SALISBURY      SUNNY     46  38  73 CALM      30.15S
OCEAN CITY     SUNNY     49  45  86 CALM      30.16R
WALLOPS ISLAND PTSUNNY   53  44  71 CALM      30.17R
ACCOMACK*      MOSUNNY   45  43  93 SE3       30.16R
$$

NCZ012>017-030>032-201400-
EASTERN NORTH CAROLINA

CITY           SKY/WX    TMP DP  RH WIND       PRES   REMARKS
ELIZABETH CITY MOSUNNY   52  46  80 SW3       30.19R
AHOSKIE*       MOSUNNY   43  41  93 CALM      30.19S
EDENTON*       MOSUNNY   52  49  89 CALM      30.19S
CURRITUCK*     MOSUNNY   50  41  70 CALM      30.20R
KILL DEVIL HLS MOSUNNY   59  48  66 SW3       30.18R
MANTEO         MOSUNNY   58  46  64 CALM      30.20R
CAPE HATTERAS  SUNNY     62  49  62 CALM      30.19R
TARBORO*       MOSUNNY   46  45  97 CALM      30.19S
GOLDSBORO      MOSUNNY   50  49  97 CALM      30.17R
WASHINGTON     SUNNY     47  45  93 CALM      30.19S
GREENVILLE     MOSUNNY   50  46  87 CALM      30.19S
NEW BERN       SUNNY     53  49  86 CALM      30.20R
WILMINGTON     SUNNY     56  46  69 CALM      30.17R
$$

VAZ048-201400-
ELSEWHERE

CITY           SKY/WX    TMP DP  RH WIND       PRES   REMARKS
HARRISBURG PA  CLOUDY    44  36  73 E6        30.11R
BALTIMORE      PTSUNNY   45  40  82 CALM      30.13R
ANNAPOLIS      MOSUNNY   51  38  60 CALM      30.13R
ANDREWS AFB    MOSUNNY   50  40  70 S6        30.13R
WILMINGTON DE  SUNNY     46  38  73 CALM      30.15R
PHILADELPHIA   PTSUNNY   45  32  60 SW3       30.15R
WILDWOOD NJ*   MOSUNNY   50  41  71 CALM      30.16R
ATLANTIC CITY  SUNNY     45  39  79 CALM      30.14R
HENDERSON NC   SUNNY     49  44  83 S7        30.16R
GREENSBORO     PTSUNNY   49  44  83 S7        30.14R
ROCKY MOUNT    MOSUNNY   49  46  90 S3        30.18R
FAYETTEVILLE   SUNNY     50  45  83 S3        30.17R
CHARLOTTE      MOSUNNY   51  45  79 S6        30.15R
$$

VAZ100-201400-
MARINE

STATION/POSITION TIME  TEMP    WIND        PRES    WAVE   SWELL
                       AIR SEA DIR/SP/G            HT/PER HT/PER
                 (UTC) (F)     (DEG/KT/KT) (MB)    (FT/S) (FT/S)
44066 TX TWR #4  1300   53 65  310/ 12/ 16 1020.2R   4/11   2/11
CAPE MAY NJ      1300   53 65  120/  3/  3 1020.4S
LEWES DE         1300   48 60  200/  3/  5 1020.8R
15NM E FENWICK I 1300   58 65  190/  4/  8 1020.8R   2/11   2/11
OCEAN-CITY-INLET 1300   53 65  280/  2/  2 1020.5S
WACHAPREAGUE VA  1300   53 61   CALM  /  1 1021.3R
THOMAS POINT MD  1300   55 63  160/ 13/ 15 1021.3R
GOOSES REEF MD   1300   55     160/ 12/ 14 1020.9R
COVE POINT MD    1300   56     160/ 11/ 12 1020.6R
SOLOMONS ISLAND  1300      66                N/A
BISHOPS HEAD MD  1300   56 55  140/  9/ 10 1020.3R
PINEY POINT MD   1300          210/  9/ 10   N/A
POTOMAC MD       1300   59     180/ 10/ 12 1020.1R
CAMBRIDGE MD     1300   49 63  170/  5/  7 1020.6R
LEWISETTA VA     1300   51 62  230/  6/  7 1020.8R
RAPPAHANNOCK LGT 1300          140/  8/ 10 1021.6R
STINGRAY PT      1300   60     190/  8/  8 1021.5R
YORK RVR RNG VA  1300   57     220/ 13/ 14 1020.8R
YORKTOWN VA      1300   54 67  210/  8/ 10 1021.0R
JAMESTOWN VA     1300   51     220/ 10/ 12   N/A
DOMINION TERM VA 1300   55     210/ 10/ 11 1021.5R
KIPTOPEKE VA     1300      69  220/ 10/ 12   N/A
CHES BAY BRIDGE  1300   56 68  190/ 10/ 11 1021.0R
CHESAPEAKE LGHT  1200   61     190/  5/  5 1021.9R
WILLOUBY STN VA  1300   56     200/ 11/ 12 1020.1S
S CRANEY ISL VA  1300          160/  5/  7 1021.6R
CAPE HENRY BUOY  1300      69                N/A     2/12   2/12
1ST LANDING BUOY 1300   58     210/ 10/ 12 1021.1R
CAPE CHARLES BUO 1300      69                N/A     2/12   2/12
64NM E OF VA BCH 1300   61 69  180/  4/  6 1021.6R   3/11   3/11
DUCK PIER NC     1300   60 68  240/  5/  6 1021.5R
44100 DUCK FRF   1300      71                N/A     3/13   2/13
44056 DUCK FRF   1300                        N/A     3/13   2/13
OREGON INLET NC  1300   61 66  270/  5/  7 1022.2R
HATTERAS NC      1300   62 66   10/  5/  5 1022.6R
DIAMOND SHLS NC  1300   66     220/  2/  4 1022.2R   3/11   3/11
CAPE LOOKOUT NC  1200   60      10/  6/  9 1021.5R
$$



USA.gov is the U.S. government's official web portal to all federal, state and local government web resources and services.